Date String (YYYY-MM-DD hh:mm:ss) UTC,Instrument flags,absolute air pressure of the measurement (hPa),sample flow rate (lpm),inlet stack bypass flow (lpm),air temperature of the measurement (°C),ambient temperature measured by the external sensor (°C),aerosol sample conditioner tube jacket temperature (°C),OPC LED temperature (°C),internal box temperature (°C),relative humidity of the measurement (%),span deviation,mass concentration of particles derived from Lorenz-Mie calculation of OPC scattering (μg/m³),mass concentration of particles derived from Lorenz-Mie calculation of OPC scattering (μg/m³),mass concentration of particles derived from Lorenz-Mie calculation of OPC scattering (μg/m³)
DateTimeUTC,F1_M11,P_M11,Q1_M11,Q2_M11,T1_M11,T2_M11,T3_M11,T4_M11,T5_M11,U1_M11,ZSPAN_M11,X0_M11,X2_M11,X1_M11
2024-04-30 07:00:00,SystemResetWarning,0820.8,5.00,000.00,025.3,024.5,000.0,033.8,027.1,014.7,0000.0,0008.11,0003.24,0001.67
2024-04-30 07:01:00,SystemResetWarning,0820.8,4.99,000.00,025.3,024.5,000.0,033.8,027.1,014.5,0000.0,0008.11,0003.24,0001.67
2024-04-30 07:02:00,SystemResetWarning,0820.8,5.00,000.00,025.3,024.5,000.0,033.8,027.1,014.5,0000.0,0007.99,0003.22,0001.68
2024-04-30 07:03:00,SystemResetWarning,0820.8,5.01,000.00,025.3,024.5,000.0,033.8,027.1,014.5,0000.0,0007.88,0003.21,0001.66
2024-04-30 07:04:00,SystemResetWarning,0820.8,5.00,000.00,025.3,024.5,000.0,033.8,027.1,014.3,0000.0,0007.88,0003.22,0001.64
2024-04-30 07:05:00,SystemResetWarning,0820.8,5.00,000.00,025.3,024.5,000.0,033.8,027.1,014.1,0000.0,0007.84,0003.24,0001.65
2024-04-30 07:06:00,SystemResetWarning,0820.8,5.00,000.00,025.3,024.5,000.0,033.8,027.1,014.0,0000.0,0007.68,0003.23,0001.63
2024-04-30 07:07:00,SystemResetWarning,0820.8,5.00,000.00,025.3,024.5,000.0,033.8,027.1,014.1,0000.0,0007.68,0003.22,0001.63
2024-04-30 07:08:00,SystemResetWarning,0820.8,5.00,000.00,025.3,024.5,000.0,033.8,027.1,014.1,0000.0,0007.72,0003.23,0001.63
2024-04-30 07:09:00,SystemResetWarning,0820.8,5.00,000.00,025.3,024.5,000.0,033.8,027.1,014.1,0000.0,0007.16,0003.25,0001.63
2024-04-30 07:10:00,SystemResetWarning,0820.8,4.99,000.00,025.3,024.5,000.0,033.8,027.1,014.2,0000.0,0007.09,0003.26,0001.64
2024-04-30 07:11:00,SystemResetWarning,0820.8,5.00,000.00,025.3,024.5,000.0,033.8,027.1,014.6,0000.0,0007.09,0003.25,0001.64
2024-04-30 07:12:00,SystemResetWarning,0820.8,4.99,000.00,025.3,024.5,000.0,033.8,027.1,014.7,0000.0,0007.01,0003.23,0001.64
2024-04-30 07:13:00,SystemResetWarning,0820.7,5.00,000.00,025.3,024.5,000.0,033.8,027.1,014.8,0000.0,0006.89,0003.20,0001.64
2024-04-30 07:14:00,SystemResetWarning,0820.7,5.01,000.00,025.3,024.5,000.0,033.8,027.1,014.9,0000.0,0006.71,0003.18,0001.65
2024-04-30 07:15:00,SystemResetWarning,0820.7,5.01,000.00,025.3,024.5,000.0,033.8,027.1,014.5,0000.0,0006.81,0003.21,0001.67
2024-04-30 07:16:00,SystemResetWarning,0820.7,5.01,000.00,025.3,024.5,000.0,033.8,027.1,014.2,0000.0,0006.91,0003.21,0001.69
2024-04-30 07:17:00,SystemResetWarning,0820.6,5.00,000.00,025.3,024.5,000.0,033.8,027.1,014.1,0000.0,0007.43,0003.24,0001.71
2024-04-30 07:18:00,SystemResetWarning,0820.6,4.99,000.00,025.3,024.5,000.0,033.8,027.1,014.0,0000.0,0007.88,0003.24,0001.73
2024-04-30 07:19:00,SystemResetWarning,0820.7,5.00,000.00,025.3,024.5,000.0,033.8,027.1,014.0,0000.0,0007.79,0003.21,0001.74
2024-04-30 07:20:00,SystemResetWarning,0820.7,5.01,000.00,025.3,024.4,000.0,033.8,027.0,014.2,0000.0,0007.84,0003.21,0001.75
2024-04-30 07:21:00,SystemResetWarning,0820.7,5.01,000.00,025.3,024.4,000.0,033.8,027.0,014.6,0000.0,0007.83,0003.21,0001.74
2024-04-30 07:22:00,SystemResetWarning,0820.7,5.00,000.00,025.3,024.4,000.0,033.8,027.0,014.6,0000.0,0007.84,0003.21,0001.73
2024-04-30 07:23:00,SystemResetWarning,0820.7,5.00,000.00,025.2,024.4,000.0,033.7,027.0,014.8,0000.0,0007.84,0003.23,0001.74
2024-04-30 07:24:00,SystemResetWarning,0820.7,5.00,000.00,025.2,024.4,000.0,033.7,027.0,014.8,0000.0,0008.14,0003.31,0001.76
2024-04-30 07:25:00,SystemResetWarning,0820.7,5.01,000.00,025.2,024.4,000.0,033.7,027.0,014.9,0000.0,0008.28,0003.34,0001.76
2024-04-30 07:26:00,SystemResetWarning,0820.7,5.01,000.00,025.2,024.4,000.0,033.7,027.0,014.9,0000.0,0008.31,0003.37,0001.77
2024-04-30 07:27:00,SystemResetWarning,0820.6,4.99,000.00,025.2,024.4,000.0,033.7,027.0,014.9,0000.0,0008.29,0003.37,0001.76
2024-04-30 07:28:00,SystemResetWarning,0820.6,4.99,000.00,025.2,024.4,000.0,033.7,027.0,014.9,0000.0,0007.94,0003.33,0001.75
2024-04-30 07:29:00,SystemResetWarning,0820.6,5.02,000.00,025.2,024.4,000.0,033.7,027.0,014.5,0000.0,0007.45,0003.33,0001.76
2024-04-30 07:30:00,SystemResetWarning,0820.5,5.01,000.00,025.2,024.4,000.0,033.7,027.0,014.4,0000.0,0007.50,0003.35,0001.74
2024-04-30 07:31:00,SystemResetWarning,0820.5,4.98,000.00,025.2,024.4,000.0,033.7,027.0,014.2,0000.0,0007.49,0003.35,0001.73
2024-04-30 07:32:00,SystemResetWarning,0820.5,5.00,000.00,025.2,024.4,000.0,033.7,027.0,014.0,0000.0,0007.48,0003.37,0001.73
2024-04-30 07:33:00,SystemResetWarning,0820.6,5.00,000.00,025.2,024.4,000.0,033.7,027.0,013.9,0000.0,0007.37,0003.34,0001.73
2024-04-30 07:34:00,SystemResetWarning,0820.8,5.00,000.00,025.2,024.4,000.0,033.7,027.0,013.9,0000.0,0007.74,0003.33,0001.73
2024-04-30 07:35:00,SystemResetWarning,0820.7,5.00,000.00,025.2,024.4,000.0,033.7,027.0,013.9,0000.0,0007.75,0003.29,0001.72
2024-04-30 07:36:00,SystemResetWarning,0820.7,5.01,000.00,025.2,024.4,000.0,033.7,027.0,014.0,0000.0,0007.60,0003.25,0001.73
2024-04-30 07:37:00,SystemResetWarning,0821.0,5.01,000.00,025.2,024.4,000.0,033.7,027.0,014.0,0000.0,0007.50,0003.21,0001.72
2024-04-30 07:38:00,SystemResetWarning,0820.9,5.01,000.00,025.2,024.4,000.0,033.7,027.0,014.1,0000.0,0007.34,0003.17,0001.71
2024-04-30 07:39:00,SystemResetWarning,0820.9,5.00,000.00,025.2,024.4,000.0,033.7,027.0,014.1,0000.0,0007.42,0003.18,0001.70
2024-04-30 07:40:00,SystemResetWarning,0820.9,4.99,000.00,025.2,024.4,000.0,033.7,027.0,014.1,0000.0,0007.34,0003.16,0001.69
2024-04-30 07:41:00,SystemResetWarning,0821.0,5.00,000.00,025.2,024.4,000.0,033.7,027.0,014.1,0000.0,0007.50,0003.15,0001.70
2024-04-30 07:42:00,SystemResetWarning,0820.8,5.00,000.00,025.2,024.4,000.0,033.7,027.0,014.1,0000.0,0007.71,0003.17,0001.70
2024-04-30 07:43:00,SystemResetWarning,0820.8,5.00,000.00,025.2,024.4,000.0,033.7,027.0,014.1,0000.0,0008.15,0003.16,0001.70
2024-04-30 07:44:00,SystemResetWarning,0820.6,5.01,000.00,025.2,024.4,000.0,033.7,027.0,014.1,0000.0,0008.25,0003.17,0001.70
2024-04-30 07:45:00,SystemResetWarning,0820.6,5.01,000.00,025.2,024.4,000.0,033.7,027.0,014.1,0000.0,0007.90,0003.16,0001.69
2024-04-30 07:46:00,SystemResetWarning,0820.4,5.00,000.00,025.2,024.4,000.0,033.7,027.0,014.1,0000.0,0007.63,0003.12,0001.67
2024-04-30 07:47:00,SystemResetWarning,0820.6,4.98,000.00,025.2,024.4,000.0,033.7,027.0,014.1,0000.0,0007.60,0003.11,0001.67
2024-04-30 07:48:00,SystemResetWarning,0820.5,5.00,000.00,025.2,024.4,000.0,033.7,027.0,014.2,0000.0,0007.66,0003.13,0001.66
2024-04-30 07:49:00,SystemResetWarning,0820.7,5.00,000.00,025.2,024.4,000.0,033.7,027.0,014.5,0000.0,0007.71,0003.13,0001.66
2024-04-30 07:50:00,SystemResetWarning,0820.4,5.00,000.00,025.2,024.4,000.0,033.7,026.9,014.4,0000.0,0007.78,0003.13,0001.66
2024-04-30 07:51:00,SystemResetWarning,0820.3,5.01,000.00,025.2,024.4,000.0,033.7,027.0,014.3,0000.0,0008.04,0003.13,0001.67
2024-04-30 07:52:00,SystemResetWarning,0820.4,5.00,000.00,025.2,024.4,000.0,033.7,027.0,014.2,0000.0,0007.95,0003.15,0001.68
2024-04-30 07:53:00,SystemResetWarning,0820.3,4.99,000.00,025.2,024.4,000.0,033.7,027.0,014.5,0000.0,0007.73,0003.14,0001.67
2024-04-30 07:54:00,SystemResetWarning,0820.3,5.01,000.00,025.2,024.4,000.0,033.7,027.0,014.8,0000.0,0007.36,0003.16,0001.67
2024-04-30 07:55:00,SystemResetWarning,0820.3,5.01,000.00,025.2,024.4,000.0,033.7,027.0,014.8,0000.0,0007.42,0003.17,0001.68
2024-04-30 07:56:00,SystemResetWarning,0820.3,5.01,000.00,025.2,024.4,000.0,033.7,027.0,014.6,0000.0,0007.48,0003.21,0001.69
2024-04-30 07:57:00,SystemResetWarning,0820.3,4.99,000.00,025.2,024.4,000.0,033.7,027.0,014.5,0000.0,0007.57,0003.23,0001.71
2024-04-30 07:58:00,SystemResetWarning,0820.3,4.98,000.00,025.2,024.4,000.0,033.7,027.0,014.8,0000.0,0007.69,0003.24,0001.69
2024-04-30 07:59:00,SystemResetWarning,0820.4,5.01,000.00,025.2,024.4,000.0,033.7,027.0,014.8,0000.0,0007.70,0003.25,0001.68
